Location: La Sioule Rivi�re
(46.3664°N, 3.3197°E)
Time: 12:21:03
(UTC+00:00)

BREEZE-M TANK - Pass Details

Date: 29 October 2020
Orbit: 546 x 24740 km, 45.2° (Epoch: 21 November)

Event Time Altitude Azimuth Distance (km) Brightness Sun altitude
Rises 17:01:28 0° 265° (W) 9,154 10.8 -5.0°
Reaches altitude 10° 17:10:09 10° 266° (W) 5,656 9.2 -6.5°
Maximum altitude 17:21:17 82° 182° (S) 942 3.5 -8.4°
Enters shadow 17:24:54 11° 94° (E) 1,942 4.5 -9.0°
